Location: Unspecified
(0.0000°N, 0.0000°E)
Time: 01:18:48
(UTC+00:00)

deb r/b Ablestar - Visible Passes

Search period start: 07 October 2024 00:00
Search period end: 17 October 2024 00:00
Orbit: 603 x 670 km, 66.3° (Epoch: 06 October)

Date Brightness Start Highest point End Pass type
(mag) Time Alt. Az. Time Alt. Az. Time Alt. Az.
07 Oct ? 04:27:50 10° SE 04:29:37 12° ESE 04:31:25 10° E visible
07 Oct ? 18:17:52 10° WNW 18:20:57 17° WSW 18:24:02 10° SSW visible
08 Oct ? 04:48:15 10° S 04:52:22 39° ESE 04:56:30 10° NE visible
09 Oct ? 05:10:37 10° SSW 05:14:57 60° WNW 05:19:20 10° N visible
10 Oct ? 03:54:32 10° SSE 03:57:38 19° ESE 04:00:45 10° ENE visible
11 Oct ? 04:15:37 10° S 04:19:57 60° ESE 04:24:21 10° NNE visible
12 Oct ? 04:39:26 19° SW 04:42:09 39° WNW 04:46:18 10° N visible
13 Oct ? 03:26:51 17° ENE 03:26:51 17° ENE 03:28:13 10° NE visible
13 Oct ? 05:04:29 13° WNW 05:04:29 13° WNW 05:06:11 10° NW visible
